harmoniewoman.ru alexa rank chart, harmoniewoman.ru alexa rank daily changes

harmoniewoman.ru alexa rank chart, harmoniewoman.ru alexa rank daily changes

harmoniewoman.ru
Actual rank:
330 368

RANK HISTORY

Date Rank Diff
2018/01/17 330 368 -17 590
2018/01/16 347 958 +8 606
2018/01/15 339 352 +8 122
2018/01/14 331 230 +3 488
2018/01/13 327 742 +15 101
2018/01/12 312 641 +10 814
2018/01/11 301 827 +18 762
2018/01/10 283 065 +7 382
2018/01/09 275 683 +7 351
2018/01/08 268 332 +6 032
2018/01/07 262 300 +13 230
2018/01/06 249 070 +16 842
2018/01/05 232 228 +7 799
2018/01/04 224 429 +20 043
2018/01/03 204 386 +4 123
2018/01/02 200 263 +5 039
2018/01/01 195 224 +4 046
2017/12/31 191 178 +4 548
2017/12/30 186 630 +7 446
2017/12/29 179 184 +7 859
2017/12/28 171 325 +6 086
2017/12/27 165 239 +1 957
2017/12/26 163 282 -3 901
2017/12/25 167 183 -4 757
2017/12/24 171 940 +970
2017/12/23 170 970 -1 910
2017/12/22 172 880 +1 372
2017/12/21 171 508 -558
2017/12/20 172 066 -3 677
2017/12/19 175 743 +1 676
2017/12/18 174 067 +402
2017/12/17 173 665 -777
2017/12/16 174 442 -538
2017/12/15 174 980 -24
2017/12/14 175 004 +5 223
2017/12/13 169 781 -1 620
2017/12/12 171 401 -2 693
2017/12/11 174 094 -4 784
2017/12/10 178 878 +800
2017/12/09 178 078 -88
2017/12/08 178 166 +580
2017/12/07 177 586 -5 259
2017/12/06 182 845 -6 092
2017/12/05 188 937 -6 458
2017/12/04 195 395 -13 411
2017/12/03 208 806 -6 445
2017/12/02 215 251 -8 207
2017/12/01 223 458 +2 470
2017/11/30 220 988 -3 317
2017/11/29 224 305 -7 910
2017/11/28 232 215 -9 663
2017/11/27 241 878 -10 303
2017/11/26 252 181 +3 699
2017/11/25 248 482 +10 335
2017/11/24 238 147 +7 004
2017/11/23 231 143 +15 975
2017/11/22 215 168 +2 324
2017/11/21 212 844 +5 054
2017/11/20 207 790 +2 813
2017/11/19 204 977 -454
2017/11/18 205 431

WIDGET FOR YOUR SITE

DOMAINS WITH THE NEAREST RANK

Domain Rank
razavi2020.ir 330 363
016f.pw 330 364
catchingstepsibling.com 330 365
gputemp.com 330 366
wacomstore.com.br 330 367
harmoniewoman.ru 330 368
woundexpert.com 330 369
way9.ru 330 370
graniru.info 330 371
517xueche.com 330 372
clickcamboriu.com.br 330 373

DOMAINS WITH THE NEAREST RANK BY TLD .ru

Domain Rank
widewallpapers.ru 330 234
mozgius.ru 330 305
yaharu.ru 330 318
masuma.ru 330 327
allergycentr.ru 330 341
harmoniewoman.ru 330 368
way9.ru 330 370
psi-doctor.ru 330 423
forest-farm.ru 330 430
comp-doctor.ru 330 451
lit-yaz.ru 330 464